TimeCDT,TemperatureF,Dew PointF,Humidity,Sea Level PressureIn,VisibilityMPH,Wind Direction,Wind SpeedMPH,Gust SpeedMPH,PrecipitationIn,Events,Conditions,WindDirDegrees,DateUTC
12:53 AM,35.1,21.0,57,29.96,10.0,East,16.1,-,N/A,,Clear,80,2014-04-02 05:53:00
1:53 AM,35.1,21.0,57,29.91,10.0,ENE,16.1,-,N/A,,Clear,70,2014-04-02 06:53:00
2:53 AM,35.1,21.0,57,29.91,10.0,East,16.1,-,N/A,,Mostly Cloudy,80,2014-04-02 07:53:00
3:53 AM,34.0,21.0,59,29.92,10.0,East,11.5,-,N/A,,Overcast,80,2014-04-02 08:53:00
4:53 AM,34.0,21.0,59,29.91,10.0,ENE,11.5,-,N/A,,Overcast,70,2014-04-02 09:53:00
5:53 AM,33.1,21.0,61,29.91,10.0,ENE,9.2,-,N/A,,Mostly Cloudy,70,2014-04-02 10:53:00
7:53 AM,32.0,21.0,64,29.91,10.0,ENE,11.5,-,N/A,,Overcast,70,2014-04-02 12:53:00
8:53 AM,34.0,21.9,61,29.91,10.0,ENE,12.7,-,N/A,,Mostly Cloudy,70,2014-04-02 13:53:00
9:53 AM,35.1,21.9,59,29.91,10.0,ENE,16.1,-,N/A,,Mostly Cloudy,70,2014-04-02 14:53:00
10:04 AM,35.1,21.9,59,29.85,10.0,ENE,15.0,-,N/A,,Overcast,70,2014-04-02 15:04:00
10:53 AM,36.0,23.0,59,29.89,10.0,ENE,12.7,-,N/A,,Overcast,60,2014-04-02 15:53:00
11:53 AM,37.0,24.1,59,29.89,9.0,East,12.7,-,N/A,,Overcast,80,2014-04-02 16:53:00
12:53 PM,39.0,25.0,57,29.88,9.0,ENE,10.4,-,N/A,,Overcast,70,2014-04-02 17:53:00
1:53 PM,41.0,28.0,60,29.86,9.0,East,8.1,-,N/A,,Overcast,90,2014-04-02 18:53:00
2:53 PM,42.1,28.0,58,29.84,8.0,North,-9999.0,-,N/A,,Overcast,0,2014-04-02 19:53:00
3:53 PM,44.1,28.9,55,29.82,8.0,ENE,10.4,-,N/A,,Overcast,70,2014-04-02 20:53:00
4:53 PM,45.0,30.0,56,29.80,7.0,East,11.5,-,N/A,,Overcast,90,2014-04-02 21:53:00
5:53 PM,44.1,30.0,58,29.80,7.0,NE,12.7,-,N/A,,Mostly Cloudy,50,2014-04-02 22:53:00
6:53 PM,44.1,30.9,60,29.81,7.0,ENE,16.1,-,N/A,,Mostly Cloudy,60,2014-04-02 23:53:00
7:02 PM,43.0,30.9,62,29.77,7.0,NE,16.1,-,N/A,,Scattered Clouds,50,2014-04-03 00:02:00
7:53 PM,39.0,30.9,73,29.79,6.0,ENE,18.4,-,N/A,,Haze,60,2014-04-03 00:53:00
8:53 PM,37.9,32.0,79,29.81,6.0,ENE,15.0,-,N/A,,Haze,60,2014-04-03 01:53:00
9:10 PM,37.9,32.0,79,29.78,6.0,NE,12.7,-,N/A,,Haze,50,2014-04-03 02:10:00
9:53 PM,37.0,33.1,86,29.84,4.0,NNE,13.8,-,N/A,,Overcast,30,2014-04-03 02:53:00
10:11 PM,37.0,33.1,86,29.80,4.0,NE,15.0,-,N/A,,Overcast,40,2014-04-03 03:11:00
10:22 PM,37.0,33.1,86,29.82,5.0,NE,11.5,-,N/A,,Overcast,40,2014-04-03 03:22:00
10:49 PM,37.4,32.0,81,29.80,5.0,NE,15.0,-,N/A,,Haze,40,2014-04-03 03:49:00
10:53 PM,37.0,32.0,82,29.86,5.0,NNE,13.8,-,N/A,,Haze,30,2014-04-03 03:53:00
11:53 PM,37.0,30.9,79,29.86,6.0,NNE,15.0,-,N/A,,Haze,20,2014-04-03 04:53:00